| time (UTC) | temp F | wind direction | speed knots | gust knots | rain 1hr in | rain 24hr in | rain mn in | humidity % | barometer mb |
| 20260505121550 | 34 | 196 | 2.6 | 6.1 | 0.00 | 0.00 | 0.00 | 92 | 1014.6 |
| 20260505120104 | 34 | 200 | 0.9 | 2.6 | 0.00 | 0.00 | 0.00 | 92 | 1014.3 |
| 20260505114547 | 34 | 223 | 1.7 | 5.2 | 0.00 | 0.00 | 0.00 | 93 | 1014.6 |
| 20260505113049 | 34 | 178 | 2.6 | 7.0 | 0.00 | 0.00 | 0.00 | 93 | 1014.9 |
| 20260505111547 | 34 | 215 | 1.7 | 4.3 | 0.00 | 0.00 | 0.00 | 92 | 1014.9 |
| 20260505110108 | 34 | 151 | 2.6 | 10.4 | 0.00 | 0.00 | 0.00 | 90 | 1014.9 |
| 20260505101548 | 35 | 207 | 3.5 | 8.7 | 0.00 | 0.00 | 0.00 | 93 | 1015.1 |
| 20260505100049 | 35 | 207 | 4.3 | 10.4 | 0.00 | 0.00 | 0.00 | 92 | 1015.2 |
| 20260505094550 | 35 | 217 | 3.5 | 7.8 | 0.00 | 0.00 | 0.00 | 91 | 1015.2 |
| 20260505093053 | 36 | 153 | 3.5 | 7.8 | 0.00 | 0.00 | 0.00 | 90 | 1015.3 |
| 20260505091555 | 35 | 0 | 0.0 | 0.0 | 0.00 | 0.00 | 0.00 | 90 | 1015.5 |
| 20260505090051 | 35 | 0 | 0.0 | 0.0 | 0.00 | 0.00 | 0.00 | 89 | 1015.3 |
| 20260505084556 | 35 | 274 | 0.0 | 1.7 | 0.00 | 0.00 | 0.00 | 87 | 1015.4 |
| 20260505083105 | 36 | 0 | 0.0 | 2.6 | 0.00 | 0.00 | 0.00 | 87 | 1015.4 |
| 20260505081554 | 36 | 293 | 0.0 | 2.6 | 0.00 | 0.00 | 0.00 | 85 | 1015.8 |
| 20260505080100 | 37 | 306 | 2.6 | 4.3 | 0.00 | 0.00 | 0.00 | 85 | 1016.0 |
| 20260505074550 | 37 | 221 | 0.0 | 1.7 | 0.00 | 0.00 | 0.00 | 84 | 1015.9 |
| 20260505073057 | 37 | 0 | 0.9 | 3.5 | 0.00 | 0.00 | 0.00 | 84 | 1015.9 |
| 20260505071555 | 37 | 171 | 1.7 | 5.2 | 0.00 | 0.00 | 0.00 | 83 | 1016.0 |
| 20260505070053 | 37 | 305 | 0.9 | 5.2 | 0.00 | 0.00 | 0.00 | 83 | 1016.0 |
| 20260505064702 | 38 | 277 | 2.6 | 4.3 | 0.00 | 0.00 | 0.00 | 82 | 1016.1 |
| 20260505063053 | 38 | 190 | 1.7 | 6.1 | 0.00 | 0.00 | 0.00 | 81 | 1016.3 |
| 20260505061552 | 39 | 252 | 1.7 | 5.2 | 0.00 | 0.00 | 0.00 | 79 | 1016.4 |
| 20260505060050 | 39 | 300 | 1.7 | 6.1 | 0.00 | 0.00 | 0.00 | 78 | 1016.0 |
| 20260505054552 | 40 | 214 | 2.6 | 6.1 | 0.00 | 0.00 | 0.00 | 75 | 1016.1 |
| 20260505053057 | 40 | 0 | 0.0 | 1.7 | 0.00 | 0.00 | 0.00 | 74 | 1016.1 |
| 20260505051549 | 39 | 0 | 0.9 | 3.5 | 0.00 | 0.00 | 0.00 | 76 | 1016.1 |
| 20260505041556 | 38 | 20 | 4.3 | 7.8 | 0.00 | 0.00 | 0.00 | 84 | 1015.9 |
| 20260505034606 | 37 | 46 | 3.5 | 9.6 | 0.00 | 0.00 | 0.00 | 86 | 1015.8 |
| 20260505033051 | 36 | 43 | 5.2 | 8.7 | 0.00 | 0.00 | 0.00 | 88 | 1015.6 |
| 20260505031548 | 37 | 94 | 6.1 | 9.6 | 0.00 | 0.00 | 0.00 | 86 | 1015.5 |
| 20260505024610 | 38 | 355 | 4.3 | 13.0 | 0.00 | 0.00 | 0.00 | 82 | 1015.5 |
| 20260505023050 | 39 | 74 | 5.2 | 12.2 | 0.00 | 0.00 | 0.00 | 77 | 1015.4 |
| 20260505021550 | 40 | 49 | 4.3 | 9.6 | 0.00 | 0.00 | 0.00 | 75 | 1015.1 |
| 20260505014551 | 41 | 5 | 6.1 | 10.4 | 0.00 | 0.00 | 0.00 | 71 | 1015.4 |
| 20260505013050 | 43 | 88 | 2.6 | 9.6 | 0.00 | 0.00 | 0.00 | 64 | 1015.1 |
| 20260505011550 | 47 | 226 | 4.3 | 9.6 | 0.00 | 0.00 | 0.00 | 51 | 1014.8 |
| 20260505010107 | 48 | 209 | 3.5 | 8.7 | 0.00 | 0.00 | 0.00 | 50 | 1014.6 |
| 20260505004605 | 48 | 211 | 3.5 | 8.7 | 0.00 | 0.00 | 0.00 | 49 | 1014.6 |
| 20260505003058 | 49 | 246 | 2.6 | 10.4 | 0.00 | 0.00 | 0.00 | 49 | 1014.7 |
| 20260505001552 | 50 | 207 | 4.3 | 12.2 | 0.00 | 0.00 | 0.00 | 46 | 1014.5 |
| 20260505000104 | 50 | 195 | 7.0 | 13.0 | 0.00 | 0.00 | 0.00 | 43 | 1014.5 |
| 20260504234555 | 51 | 208 | 6.1 | 13.0 | 0.00 | 0.00 | 0.00 | 41 | 1014.6 |
| 20260504233051 | 51 | 215 | 4.3 | 13.0 | 0.00 | 0.00 | 0.00 | 43 | 1014.6 |
| 20260504231620 | 51 | 219 | 6.1 | 18.2 | 0.00 | 0.00 | 0.00 | 47 | 1014.5 |
| 20260504230053 | 51 | 257 | 7.0 | 17.4 | 0.00 | 0.00 | 0.00 | 47 | 1014.5 |
| 20260504224550 | 51 | 189 | 7.0 | 18.2 | 0.00 | 0.00 | 0.00 | 48 | 1014.6 |
| 20260504223054 | 51 | 197 | 9.6 | 20.9 | 0.00 | 0.00 | 0.00 | 47 | 1014.6 |
| 20260504221632 | 54 | 269 | 7.8 | 16.5 | 0.00 | 0.00 | 0.00 | 41 | 1014.5 |
| 20260504220057 | 53 | 220 | 8.7 | 16.5 | 0.00 | 0.00 | 0.00 | 40 | 1014.7 |
| 20260504214550 | 55 | 217 | 5.2 | 13.0 | 0.00 | 0.00 | 0.00 | 39 | 1015.0 |
| 20260504213059 | 55 | 209 | 5.2 | 19.1 | 0.00 | 0.00 | 0.00 | 36 | 1015.0 |
| 20260504211555 | 55 | 270 | 10.4 | 17.4 | 0.00 | 0.00 | 0.00 | 33 | 1015.0 |
| 20260504210054 | 56 | 207 | 8.7 | 15.6 | 0.00 | 0.00 | 0.00 | 35 | 1014.9 |
| 20260504204552 | 55 | 210 | 9.6 | 16.5 | 0.00 | 0.00 | 0.00 | 34 | 1015.2 |
| 20260504203053 | 52 | 182 | 1.7 | 8.7 | 0.00 | 0.00 | 0.00 | 40 | 1015.3 |
| 20260504201555 | 54 | 216 | 6.1 | 12.2 | 0.00 | 0.00 | 0.00 | 39 | 1015.8 |
| 20260504200055 | 54 | 187 | 4.3 | 11.3 | 0.00 | 0.00 | 0.00 | 41 | 1015.8 |
| 20260504194602 | 53 | 213 | 5.2 | 13.0 | 0.00 | 0.00 | 0.00 | 43 | 1015.9 |
| 20260504193050 | 51 | 253 | 3.5 | 14.8 | 0.00 | 0.00 | 0.00 | 47 | 1016.1 |
| 20260504191618 | 51 | 188 | 7.0 | 16.5 | 0.00 | 0.00 | 0.00 | 48 | 1016.4 |
| 20260504190053 | 51 | 225 | 10.4 | 23.5 | 0.00 | 0.00 | 0.00 | 48 | 1016.4 |
| 20260504184601 | 55 | 186 | 7.0 | 13.0 | 0.00 | 0.00 | 0.00 | 32 | 1016.0 |
| 20260504183050 | 54 | 311 | 8.7 | 16.5 | 0.00 | 0.00 | 0.00 | 33 | 1016.1 |
| 20260504181546 | 55 | 227 | 5.2 | 14.8 | 0.00 | 0.00 | 0.00 | 32 | 1016.2 |
| 20260504180051 | 55 | 259 | 7.8 | 15.6 | 0.00 | 0.00 | 0.00 | 34 | 1016.3 |
| 20260504174548 | 54 | 254 | 7.0 | 16.5 | 0.00 | 0.00 | 0.00 | 35 | 1016.6 |
| 20260504173047 | 53 | 176 | 7.0 | 16.5 | 0.00 | 0.00 | 0.00 | 35 | 1016.6 |
| 20260504171546 | 53 | 337 | 7.8 | 16.5 | 0.00 | 0.00 | 0.00 | 36 | 1017.1 |
| 20260504140103 | 44 | 239 | 6.1 | 12.2 | 0.00 | 0.00 | 0.00 | 53 | 1018.4 |